This demonstration page uses our WeatherBlox Daily Observations layout. Learn more.

41.55636, -103.73856

Hourly Observations for August 25, 2015

Temp ( °F °C ) Dew Point ( °F °C ) Humidity (%) Winds ( mph kmh ) Pressure ( in mb ) Visibility ( mi km ) Precip ( " mm )
12:53 am 00:53 Clear 60 15.6 52 11.1 75 75 E 3 6 30.06 1018 10 16.0934 0 0
1:53 am 01:53 Clear 58 14.4 52 11.1 81 81 E 5 7 30.05 1018 10 16.0934 0 0
2:53 am 02:53 Clear 56 13.3 50 10 81 81 Calm 30.04 1017 10 16.0934 0 0
3:53 am 03:53 Clear 56 13.3 51 10.6 84 84 Calm 30.03 1017 10 16.0934 0 0
4:53 am 04:53 Clear 52 11.1 49 9.4 89 89 Calm 30.05 1018 10 16.0934 0 0
5:53 am 05:53 Clear 53 11.7 49 9.4 86 86 Calm 30.05 1018 10 16.0934 0 0
6:53 am 06:53 Sunny 53 11.7 50 10 89 89 S 3 6 30.06 1018 8 12.87472 0 0
7:53 am 07:53 Sunny 57 13.9 52 11.1 83 83 ESE 5 7 30.09 1019 9 14.48406 0 0
8:53 am 08:53 Sunny 62 16.7 52 11.1 70 70 SE 6 9 30.09 1019 10 16.0934 0 0
9:53 am 09:53 Sunny 70 21.1 55 12.8 59 59 E 7 11 30.08 1019 10 16.0934 0 0
10:53 am 10:53 Sunny 76 24.4 58 14.4 54 54 E 7 11 30.07 1018 10 16.0934 0 0
11:53 am 11:53 Sunny 80 26.7 57 13.9 45 45 E 10 17 30.05 1018 10 16.0934 0 0
12:53 pm 12:53 Sunny 84 28.9 58 14.4 41 41 E 12 19 30.02 1017 10 16.0934 0 0
1:53 pm 13:53 Sunny 89 31.7 60 15.6 38 38 ESE 9 15 30 1016 10 16.0934 0 0
2:53 pm 14:53 Sunny 91 32.8 61 16.1 37 37 E 12 19 29.98 1015 10 16.0934 0 0
3:53 pm 15:53 Sunny 93 33.9 58 14.4 31 31 ESE 10 17 29.96 1015 10 16.0934 0 0
4:53 pm 16:53 Sunny 93 33.9 56 13.3 29 29 SE 8 13 29.96 1015 10 16.0934 0 0
5:53 pm 17:53 Sunny 88 31.1 63 17.2 43 43 ESE 8 13 29.96 1014 9 14.48406 0 0
6:53 pm 18:53 Sunny 78 25.6 63 17.2 60 60 E 9 15 29.98 1015 8 12.87472 0 0
7:53 pm 19:53 Clear 75 23.9 58 14.4 55 55 E 12 19 29.99 1016 10 16.0934 0 0
8:53 pm 20:53 Clear 74 23.3 57 13.9 56 56 ESE 12 19 30.01 1016 10 16.0934 0 0
9:53 pm 21:53 Clear 74 23.3 58 14.4 57 57 ESE 9 15 30.01 1016 10 16.0934 0 0
10:53 pm 22:53 Clear 70 21.1 58 14.4 66 66 ESE 9 15 30.01 1016 10 16.0934 0 0
11:53 pm 23:53 Clear 68 20 58 14.4 70 70 ESE 10 17 30.01 1016 10 16.0934 0 0

Powered by AerisWeather